EHI
0 1 5 7 8 10 13 15 13 8 4 3 3 3 3 2 1 0 0 0 0 0 0 0 0 0 0 0 0 0 0 0 0 0 0 0 0 0 0 0 0 0 0
1 2 5 9 10 11 13 16 13 9 5 4 3 3 3 2 1 0 0 0 0 0 0 0 0 0 0 0 0 0 0 0 0 0 0 0 0 0 0 0 0 0 0
4 4 5 10 14 14 15 16 14 10 7 5 4 4 3 3 1 0 0 0 0 0 0 0 0 0 0 0 0 0 0 0 0 0 0 0 0 0 0 0 0 0 0
8 7 7 11 15 16 17 17 15 12 8 5 4 5 4 4 3 1 1 1 0 0 0 0 0 0 0 0 0 0 0 0 0 0 0 0 0 0 0 0 0 0 0
11 10 10 12 15 16 16 15 14 13 10 7 5 5 6 6 5 3 2 2 1 0 0 0 0 0 0 0 0 0 0 0 0 0 0 0 0 0 0 0 0 0 0
15 12 12 15 16 16 15 12 11 12 11 8 6 5 6 6 6 4 3 3 1 0 0 0 0 0 0 0 0 0 0 0 0 0 0 0 0 0 0 0 0 0 0
17 14 14 15 16 17 16 12 9 9 9 8 5 4 5 6 5 4 3 3 2 1 0 0 0 0 0 0 0 0 0 0 0 0 0 0 0 0 0 0 0 0 0
18 16 13 14 14 15 15 13 9 7 7 6 4 4 4 4 4 3 3 3 2 1 0 0 0 0 0 0 0 0 0 0 0 0 0 0 0 0 0 0 0 0 0
18 16 12 11 12 13 13 11 8 6 6 5 4 3 3 2 2 2 2 2 2 1 0 0 0 0 0 0 0 0 0 0 0 0 0 0 0 0 0 0 0 0 0
16 15 14 12 12 12 10 7 5 4 3 3 3 2 1 1 1 1 1 1 1 0 0 0 0 0 0 0 0 0 0 0 0 0 0 0 0 0 0 0 0 0 0
12 14 15 15 14 13 10 7 3 1 1 1 1 1 0 0 0 0 0 0 0 0 0 0 0 0 0 0 0 0 0 0 0 0 0 0 0 0 0 0 0 0 0
8 10 13 14 14 13 12 9 5 2 0 0 0 0 0 0 0 0 0 0 0 0 0 0 0 0 0 0 0 0 0 0 0 0 0 0 0 0 0 0 0 0 0
6 8 10 12 12 13 13 11 7 3 1 0 0 0 0 0 0 0 0 0 0 0 0 0 0 0 0 0 0 0 0 0 0 0 0 0 0 0 0 0 0 0 0
5 6 7 9 9 10 12 10 6 3 1 0 0 0 0 0 0 0 0 0 0 0 0 0 0 0 0 0 0 0 0 0 0 0 0 0 0 0 0 0 0 0 0
4 4 6 6 6 7 8 6 3 2 1 0 0 0 0 0 0 0 0 0 0 0 0 0 0 0 0 0 0 0 0 0 0 0 0 0 0 0 0 0 0 0 0
3 4 5 5 4 3 3 2 1 1 0 0 0 0 0 0 0 0 0 0 0 0 0 0 0 0 0 1 1 0 0 0 0 0 0 0 0 0 0 0 0 0 0
3 3 4 4 2 1 1 0 0 0 0 0 0 0 0 0 0 0 0 0 0 0 0 0 0 0 0 1 1 0 0 0 0 0 0 0 0 0 0 0 0 0 0
3 3 3 3 1 0 0 0 0 0 0 0 0 0 0 0 0 0 0 0 0 0 0 0 0 0 0 1 1 0 0 0 0 0 0 0 0 0 0 0 0 0 0
2 3 3 2 1 0 0 0 0 0 0 0 0 0 0 0 0 0 0 0 0 0 0 0 0 0 0 0 0 0 0 0 0 0 0 0 0 0 0 0 0 0 0
1 1 2 2 1 0 0 0 0 0 0 0 0 0 0 0 0 0 0 0 0 0 0 0 0 0 0 0 0 0 0 0 0 0 0 0 0 0 0 0 0 0 0
0 0 1 1 0 0 0 0 0 0 0 0 0 0 0 0 0 0 0 0 0 0 0 0 0 0 0 0 0 0 0 0 0 0 0 0 0 0 0 0 0 0 0
0 0 0 0 0 0 0 0 0 0 0 0 0 0 0 0 0 0 0 0 0 0 0 0 0 0 0 0 0 0 0 0 0 0 0 0 0 0 0 0 0 0 0
0 0 0 0 0 0 0 0 0 0 0 0 0 0 0 0 0 0 0 0 0 0 0 0 0 0 0 0 0 0 0 0 0 0 0 0 0 0 0 0 0 0 0
0 0 0 0 0 0 0 0 0 0 0 0 0 0 0 0 0 0 0 0 0 0 0 0 0 0 0 0 0 0 0 0 0 0 0 0 0 0 0 0 0 0 0
0 0 0 0 0 0 0 0 0 0 0 0 0 0 0 0 0 0 0 0 0 0 0 0 0 0 0 0 0 0 0 0 0 0 0 0 0 0 0 0 0 0 0
0 0 0 0 0 0 0 0 0 0 0 0 0 0 0 0 0 0 0 0 0 0 0 0 0 0 0 0 0 0 0 0 0 0 0 0 0 0 0 0 0 0 0
Wind_Speed
4 5 9 12 14 14 14 14 14 15 15 15 16 15 15 14 14 14 14 14 14 14 15 15 16 16 16 16 16 16 16 16 16 15 15 14 15 16 16 16 14 10 17
8 7 10 12 14 14 14 14 14 14 13 14 15 15 14 14 14 14 14 14 14 14 14 15 15 16 16 16 16 15 15 15 15 14 13 11 12 15 15 15 14 10 16
9 8 9 12 13 14 13 13 14 14 13 13 14 14 14 13 13 13 13 13 13 14 14 14 15 15 15 15 15 14 14 14 14 13 11 6 8 14 15 15 15 15 15
9 8 8 12 13 14 14 13 13 14 13 13 13 13 13 13 13 13 13 13 13 13 13 14 14 14 14 14 14 13 13 13 12 11 6 5 5 12 14 14 15 15 15
8 7 8 12 13 14 13 13 13 13 13 12 12 12 12 12 12 12 13 13 12 12 12 13 13 13 13 12 13 13 13 13 12 9 6 5 5 12 14 14 14 14 14
7 6 8 12 13 13 13 13 12 12 12 12 12 12 12 12 12 12 12 12 12 12 12 12 12 12 12 12 12 13 13 12 9 6 5 5 4 11 12 13 13 14 14
7 6 8 11 12 12 12 12 12 12 12 11 11 12 12 12 12 11 12 11 11 11 11 11 11 12 11 11 12 12 12 11 6 5 4 4 5 11 13 13 13 13 13
8 6 7 10 10 10 10 11 11 10 11 11 11 10 11 12 12 11 11 11 11 11 11 11 11 11 11 11 11 11 10 9 7 5 4 3 7 12 13 13 13 13 12
6 6 5 6 7 8 9 9 9 10 10 9 9 9 9 10 11 11 10 11 11 11 10 10 11 10 10 10 10 10 10 9 5 3 3 3 7 11 12 12 12 12 12
5 5 5 5 5 5 5 7 8 8 8 9 9 8 9 8 8 8 8 9 10 10 10 10 10 9 9 9 10 9 9 7 4 3 2 3 8 10 11 11 11 11 11
6 4 5 5 5 5 4 5 6 7 7 7 7 8 7 5 5 4 5 7 8 9 9 10 10 9 9 8 9 9 7 3 3 2 2 5 8 9 10 9 9 9 9
8 6 5 5 5 5 4 4 3 3 4 4 4 5 4 4 3 4 6 7 7 7 8 9 9 8 6 4 5 6 3 3 3 2 2 5 7 8 8 8 8 8 8
8 6 5 6 5 5 4 3 2 2 3 4 4 4 4 4 3 3 3 3 4 5 4 5 5 3 3 3 3 3 3 3 2 1 2 4 6 6 7 7 7 7 7
7 6 5 5 6 5 4 3 3 3 3 3 3 4 4 3 3 3 2 2 2 2 3 3 3 3 4 4 4 3 3 2 2 1 1 3 4 5 5 6 6 6 6
7 6 6 6 6 5 4 3 3 3 3 3 3 3 4 3 3 3 2 2 2 2 3 3 3 4 4 4 3 3 3 2 2 2 1 3 3 3 4 4 5 5 4
7 7 6 6 6 5 4 3 3 3 3 3 3 3 4 3 3 3 3 3 2 2 3 3 3 3 3 3 3 3 2 2 2 2 1 2 2 2 2 3 4 4 4
7 7 7 6 6 6 5 4 3 3 3 3 3 3 3 3 3 3 3 3 2 2 3 3 3 3 3 3 3 2 2 2 2 1 1 1 1 2 2 2 3 3 3
5 6 7 6 6 6 5 4 3 3 3 3 3 3 3 4 4 3 3 3 3 3 3 3 3 3 2 2 2 2 1 1 2 2 1 1 1 1 2 3 3 3 3
6 6 6 6 6 6 5 4 3 3 3 2 2 2 3 4 4 4 3 3 3 3 3 3 3 3 3 2 2 2 2 1 1 2 2 2 1 2 1 2 3 3 3
4 5 6 5 5 5 4 3 3 3 2 2 2 2 3 3 4 3 3 3 4 3 3 3 3 3 2 3 3 3 2 2 1 2 1 1 2 2 2 2 2 2 3
3 4 5 5 5 5 4 4 3 3 2 2 2 2 3 3 4 3 3 3 3 3 3 4 3 4 2 2 2 2 2 2 2 2 2 2 2 2 2 2 2 1 1
3 4 5 5 5 5 4 3 3 3 2 2 2 2 2 3 3 3 4 3 3 3 4 4 4 3 2 1 2 2 1 2 2 2 2 2 1 2 2 3 2 2 2
2 4 4 5 5 4 4 4 3 3 3 2 2 1 1 2 3 3 4 4 3 4 4 4 4 4 3 1 1 3 3 2 0 2 2 2 2 2 1 2 2 2 2
3 3 4 4 4 5 5 5 6 4 3 3 2 2 2 2 3 3 3 4 4 3 4 4 3 3 4 3 1 1 2 3 2 0 2 2 2 2 1 1 1 1 1
2 2 3 4 4 5 5 6 6 4 3 2 3 3 3 2 2 2 3 3 4 3 4 4 4 3 3 3 3 2 2 2 2 2 1 1 2 1 1 1 1 1 1
1 1 2 4 4 4 5 5 6 6 5 5 4 4 3 2 2 2 3 3 3 3 4 4 4 4 3 3 3 2 3 3 2 2 2 1 1 1 1 1 1 1 1
Wind_Direction
171 175 170 151 148 142 138 133 129 126 126 126 124 123 122 121 119 117 115 113 110 106 104 101 100 98 95 93 91 88 85 83 82 79 76 79 82 83 81 78 74 69 74
153 166 163 151 147 143 139 135 131 128 126 128 127 126 125 123 122 120 117 115 113 109 105 102 101 99 97 95 91 88 86 84 82 77 71 73 80 84 84 81 78 77 75
144 156 155 151 146 142 137 135 135 132 130 129 129 128 127 124 123 123 120 116 113 109 105 103 101 100 98 96 93 91 88 85 80 73 65 61 79 87 86 83 82 80 78
144 151 152 149 146 143 138 135 136 136 136 133 131 130 128 127 124 122 120 117 114 110 106 103 103 102 99 97 96 94 91 87 79 70 57 54 72 87 88 85 84 83 80
141 145 149 146 144 143 141 138 136 138 138 136 134 132 131 130 127 124 121 118 113 110 108 106 105 103 100 99 98 96 93 88 78 66 56 56 65 85 85 84 83 84 83
137 140 147 144 143 142 141 140 139 139 139 139 137 135 133 132 130 127 122 118 116 114 112 111 109 108 104 101 101 98 94 89 75 62 57 57 65 86 88 88 85 84 84
137 138 146 142 141 141 141 141 141 141 140 140 141 139 137 134 131 127 125 121 120 119 118 116 114 111 108 104 104 101 96 90 78 67 60 59 77 89 90 90 87 84 83
138 135 140 140 138 138 140 141 141 140 141 140 142 141 138 134 131 130 130 128 125 122 121 120 118 114 110 108 107 104 97 91 83 73 61 61 89 93 91 88 87 86 84
131 131 130 134 133 132 133 135 139 139 137 136 136 133 130 130 132 134 131 131 130 125 120 119 116 114 112 110 108 104 97 89 82 72 69 70 94 95 93 90 86 85 84
128 130 130 127 128 128 131 130 131 131 133 132 127 122 118 120 123 126 129 129 128 125 121 118 115 113 109 107 106 103 98 89 81 73 65 88 98 99 97 93 88 85 82
142 139 136 132 128 125 127 129 125 124 125 122 120 117 112 108 108 110 120 124 123 122 121 119 115 109 101 99 100 99 94 85 87 72 72 96 103 102 101 97 92 88 85
165 160 149 140 135 130 130 121 116 115 119 113 113 115 110 110 107 107 107 112 112 113 113 113 111 103 96 89 88 91 85 87 83 76 85 98 108 109 105 101 96 92 89
166 161 155 149 142 136 130 128 116 111 112 110 113 112 111 104 100 95 96 94 95 98 95 98 95 92 95 99 96 90 88 87 82 77 83 101 109 112 109 106 101 97 94
164 163 155 153 146 139 134 133 126 125 123 120 122 122 121 117 111 112 108 106 99 97 101 95 101 100 96 97 103 100 92 89 85 77 78 98 107 113 115 113 110 106 101
170 167 163 151 147 142 137 137 134 135 136 129 126 128 131 132 131 123 118 112 113 111 111 108 110 108 103 98 98 104 99 96 93 81 69 84 99 109 116 117 114 107 100
177 173 164 159 151 144 140 141 142 141 135 130 132 135 134 135 139 134 126 123 119 121 118 116 120 118 108 103 96 95 98 99 94 86 72 66 71 80 97 114 108 100 97
178 168 165 161 149 150 149 149 145 147 138 136 141 140 140 136 142 139 133 134 133 127 119 110 103 101 103 98 90 86 87 90 97 88 78 66 46 48 69 95 102 96 89
165 164 164 161 156 155 150 150 150 145 138 139 140 143 147 144 144 140 139 141 134 125 122 120 115 105 102 100 91 79 78 79 77 76 71 65 58 38 46 59 72 84 79
164 163 160 155 157 156 148 144 138 136 137 139 135 140 150 147 148 142 145 140 134 126 122 127 116 115 115 109 98 73 61 57 59 71 70 64 62 56 54 52 54 59 63
159 156 152 148 152 149 139 127 118 113 124 125 130 139 139 144 146 139 140 142 135 127 125 122 116 103 112 113 93 68 50 42 48 55 54 55 58 56 57 51 42 38 46
133 144 151 149 154 150 149 152 152 159 156 137 127 133 137 137 144 143 142 146 145 142 145 138 121 114 99 102 97 66 32 43 53 47 44 52 53 54 57 55 47 41 23
149 157 155 159 159 158 158 159 152 145 143 135 123 121 133 136 144 149 150 154 152 141 138 140 132 124 113 117 124 117 70 10 17 33 43 56 49 57 57 49 45 45 36
161 173 171 171 163 159 147 131 111 93 85 98 125 149 152 148 154 151 159 152 152 151 157 160 152 145 147 132 100 135 149 194 310 10 30 34 30 49 50 49 50 43 41
200 187 175 169 163 158 149 149 149 150 153 173 166 157 143 146 149 150 155 157 158 157 160 166 159 151 147 155 116 72 102 134 140 78 356 15 28 33 28 43 43 38 39
202 189 181 164 160 159 160 160 160 153 153 138 128 140 146 147 151 155 152 153 158 160 161 160 156 155 155 157 153 138 110 81 102 144 212 325 1 2 14 27 31 16 18
188 176 169 161 163 163 166 166 166 161 151 141 144 157 160 152 161 166 156 155 161 161 165 168 166 164 166 157 150 147 147 151 165 157 176 209 266 314 348 16 17 352 360